Location: Heidgraben
(53.7081°N, 9.6576°E)
Time: 03:30:22
(UTC+00:00)

Cosmos 1452 Rocket - Pass Details

Date: 05 July 2020
Orbit: 768 x 774 km, 74.1° (Epoch: 06 August)

Event Time Altitude Azimuth Distance (km) Brightness Sun altitude
Rises 23:24:01 0° 331° (NNW) 3,260 7.9 -13.6°
Reaches altitude 10° 23:26:27 10° 328° (NNW) 2,327 6.9 -13.6°
Maximum altitude 23:31:36 57° 251° (WSW) 911 3.8 -13.6°
Enters shadow 23:35:06 20° 179° (S) 1,715 4.7 -13.6°
